Starlink 1494

operational
NORAD ID: 45760 Int'l Des: 2020-038 Owner: SPXS Country: US Constellation: starlink
LEOCIRCULAR

Starlink 1494について

説明を読み込み中...

リアルタイム位置

3D地球を読み込み中...

次回通過

高度履歴

Altitude vs Time

uPlot chart will show altitude changes over time

軌道要素

1 45760U 20038AG 25306.46891992 .00034490 00000-0 57916-3 0 9990
2 45760 53.0551 52.2077 0002421 22.2811 337.8302 15.51482404297526
Epoch: Nov 2, 2025 • Age: 36 hours

現在のステータス

高度 414.2 km
速度 7.66 km/s
衛星直下点 1.92°N, 173.58°W
打ち上げ日 Jun 13, 2020
運用期間 5.3 years
タイプ internet

技術仕様

分類 Payload
質量 260.00 kg
乾燥質量 248.00 kg
総質量 260.00 kg
長さ 0.20 m
直径 2.80 m
スパン 9.00 m
形状 Box + pan
製造者 SPXS
バスタイプ Starlink
フェーズステータス In Orbit
所有者/国 SPXS/US

大規模コンステレーション

Loading constellations...